Powrót do katalogu

ARIANE 44LP R/B

AktywnyHEO
NORAD 26490·ROCKET BODY·🇫🇷 France

Wystrzelony Aug 17, 2000 z Guiana Space Centre

Loading…

Następne Przeloty (najbliższe 24 godziny)

TLE

ŚwieżeSource: Space-Track

Epoka: Sep 14, 2026, 17:40 UTC

1 26490U 00046D   26257.73679301  .00002231  00000-0  84535-3 0  9995
2 26490   3.2460 325.3692 6714591 111.4696 328.9389  3.00445861241436

Śledź ARIANE 44LP R/B w czasie rzeczywistym z AllMySat

Download on the App Store